Vilalleons (Osona)





Hora UTC 01:55
Temperatura 7.2 ºC
Humedad 90.0 %
Presión 1014.0 hPa
Pluja 0.0 mm
Velocidad viento 0.0 km/h
Dirección viento SSE

Datos diarios 2024-04-18



Hora UTC (invierno +1h; verano +2h)
Temperatura (ºC) Humedad (%) Presión (hPa) Velocidad viento (km/h) Precipitación (mm)
Hora UTC Aire Humedad Presión Vel. Dir. Vel. Max Dir. Intent. máx 5 min.
00:05 8.9 86.0 1014.5 1.6 SSE 1.6 0.0
00:10 8.8 86.0 1014.4 0.0 SSE 4.8 0.0
00:15 8.7 85.0 1014.5 0.0 SSE 3.2 0.0
00:20 8.4 85.0 1014.5 0.0 SSE 1.6 0.0
00:25 8.2 85.0 1014.5 1.6 SSE 1.6 0.0
00:30 8.1 86.0 1014.4 1.6 SSE 3.2 0.0
00:35 7.9 86.0 1014.3 1.6 SSE 3.2 0.0
00:40 7.8 87.0 1014.3 1.6 SSE 3.2 0.0
00:45 7.6 87.0 1014.3 1.6 SSE 3.2 0.0
00:50 7.4 87.0 1014.3 0.0 N 3.2 0.0
00:55 7.3 88.0 1014.2 0.0 N 3.2 0.0
01:00 7.3 88.0 1014.3 0.0 SSE 1.6 0.0
01:05 7.2 88.0 1014.1 0.0 N 0.0 0.0
01:10 7.2 89.0 1014.2 0.0 SSE 0.0 0.0
01:15 7.2 89.0 1014.3 0.0 N 3.2 0.0
01:20 7.1 89.0 1014.3 3.2 SSE 3.2 0.0
01:25 7.1 89.0 1014.3 0.0 SSE 3.2 0.0
01:30 7.0 89.0 1014.3 1.6 SSE 3.2 0.0
01:35 7.0 89.0 1014.2 0.0 SSE 1.6 0.0
01:40 7.0 89.0 1014.1 0.0 SSE 3.2 0.0
01:45 7.0 90.0 1014.1 1.6 SSE 6.4 0.0
01:50 7.2 90.0 1014.0 0.0 SSE 6.4 0.0
01:55 7.2 90.0 1014.0 0.0 SSE 3.2 0.0
Máxima 8.9 90.0 1014.5 3.2 SSE 6.4 0.0
Mínima 6.9 85.0 1014.0
Total 0.0